Back to catalog

STARLINK-36176

AliveCommunicationsVLEO
NORAD 67026·PAYLOAD·🇺🇸 United States

Launched Dec 10, 2025 from Vandenberg Space Force Base

Loading…

Next Passes (next 24 hours)

TLE

FreshSource: CelesTrak SupGP

Epoch: Sep 14, 2026, 23:05 UTC

1 67026C 25293Z   26257.96229167 -.00000576  00000+0 -48297-4 0  2576
2 67026  70.0023 337.0529 0003862 267.2057  84.7860 14.98325594    16

Track STARLINK-36176 in real time with AllMySat

Download on the App Store